"startDT [UTC]","vpos","CH4 [ppm]","stdev(CH4) [ppm]","CO2 [ppm]","stdev(CO2) [ppm]","H2O [ppm]","stdev(H2O)","p_LGR [torr]","T_LGR [C]","mt1_LGR [us]","mt2_LGR [us]","T_ECpre [C]","T_EC1 [C]","T_EC2 [C]","p_inlet [hPa]","p_in [hPa]","p_out [hPa]","T_inlet [C]","RH_inlet [%]","dwpt_inlet [C]","T_vent [C]","RH_vent [%]","dwpt_vent [C]","flow_vent [l min-1]","flow_inlet [l min-1]","dwpt_sample [C]","T_room [C]"
2012-05-24 00:00:00,0.0,1.9106,0.0013,403.72,0.17,135.7,29.3,137.98,33.53,24.64,36.41,0.93,-26.38,7.96,-62,558,-929,29.1,11.5,-3.8,29.0,1.0,-31.9,5.73,2.28,-27.2,33.2
2012-05-24 00:01:00,0.0,1.9103,0.0011,403.69,0.20,129.9,30.5,137.98,33.53,24.64,36.41,0.90,-26.37,8.43,-62,557,-929,29.1,11.5,-3.8,29.0,1.1,-31.8,5.73,2.28,-27.2,33.2
2012-05-24 00:02:00,0.0,1.9106,0.0011,403.56,0.18,135.4,34.1,137.98,33.54,24.64,36.42,0.90,-26.35,8.88,-62,557,-929,29.1,11.5,-3.8,29.0,1.1,-31.9,5.73,2.29,-27.2,33.2
2012-05-24 00:03:00,0.0,1.9102,0.0010,403.57,0.21,134.9,29.8,137.98,33.54,24.64,36.42,0.90,-26.35,9.31,-62,557,-929,29.1,11.5,-3.8,29.0,1.1,-31.9,5.73,2.30,-27.2,33.2
2012-05-24 00:04:00,0.0,1.9118,0.0012,403.63,0.19,138.9,26.8,137.98,33.54,24.64,36.41,0.92,-26.33,9.73,-62,558,-929,29.1,11.4,-3.8,29.0,1.1,-31.8,5.73,2.30,-27.2,33.2
2012-05-24 00:05:00,0.0,1.9135,0.0009,403.62,0.15,136.2,28.0,137.98,33.55,24.64,36.41,0.94,-26.32,10.14,-62,558,-929,29.1,11.4,-3.8,29.0,1.1,-31.8,5.73,2.29,-27.2,33.1
2012-05-24 00:06:00,0.0,1.9130,0.0010,403.58,0.19,136.5,27.7,137.98,33.55,24.64,36.41,0.95,-26.31,10.53,-62,557,-929,29.1,11.4,-3.9,29.0,1.1,-31.9,5.73,2.28,-27.2,33.2
2012-05-24 00:07:00,0.0,1.9128,0.0019,403.56,0.17,141.8,27.1,137.98,33.56,24.64,36.41,0.96,-26.29,10.91,-62,558,-929,29.1,11.5,-3.8,29.0,1.1,-31.9,5.73,2.28,-27.2,33.2
2012-05-24 00:08:00,0.0,1.9082,0.0017,403.71,0.21,140.5,27.7,137.98,33.56,24.64,36.41,0.96,-26.28,11.28,-62,558,-929,29.1,11.5,-3.7,29.0,1.1,-31.9,5.73,2.29,-27.2,33.2
2012-05-24 00:09:00,0.0,1.9072,0.0014,403.73,0.20,137.9,31.3,137.98,33.57,24.64,36.42,0.97,-26.26,11.64,-62,557,-929,29.1,11.5,-3.7,29.1,1.1,-31.8,5.73,2.29,-27.2,33.2
2012-05-24 00:10:00,0.0,1.9059,0.0009,403.77,0.18,142.4,29.7,137.98,33.57,24.64,36.42,0.97,-26.26,11.98,-62,558,-929,29.1,11.6,-3.7,29.1,1.1,-31.8,5.73,2.30,-27.2,33.2
2012-05-24 00:11:00,0.0,1.9088,0.0015,403.78,0.13,144.9,26.6,137.98,33.58,24.64,36.42,0.97,-26.25,12.30,-62,558,-929,29.1,11.7,-3.5,29.1,1.1,-31.8,5.73,2.30,-27.2,33.2
2012-05-24 00:12:00,0.0,1.9117,0.0010,403.71,0.16,144.6,30.0,137.98,33.58,24.64,36.41,0.95,-26.24,12.62,-62,558,-929,29.1,11.8,-3.4,29.1,1.1,-31.8,5.73,2.29,-27.1,33.3
2012-05-24 00:13:00,0.0,1.9145,0.0009,403.62,0.21,135.3,24.3,137.98,33.58,24.64,36.42,0.95,-26.23,12.92,-62,558,-929,29.2,11.9,-3.3,29.1,1.1,-31.8,5.73,2.28,-27.1,33.3
2012-05-24 00:14:00,0.0,1.9146,0.0008,403.59,0.20,142.4,26.8,137.98,33.59,24.64,36.42,0.94,-26.22,13.22,-62,558,-929,29.2,11.9,-3.3,29.1,1.1,-31.8,5.73,2.27,-27.1,33.3
2012-05-24 00:15:00,0.0,1.9145,0.0010,403.60,0.16,146.2,28.0,137.98,33.59,24.64,36.42,0.94,-26.21,13.50,-62,558,-929,29.2,11.8,-3.3,29.1,1.1,-31.8,5.73,2.29,-27.1,33.3
2012-05-24 00:16:00,0.0,1.9147,0.0010,403.57,0.15,150.7,26.7,137.98,33.60,24.64,36.42,0.91,-26.20,13.76,-62,558,-929,29.2,11.8,-3.4,29.1,1.1,-31.8,5.73,2.29,-27.1,33.3
2012-05-24 00:17:00,0.0,1.9144,0.0009,403.53,0.22,145.9,28.3,137.98,33.60,24.64,36.42,0.92,-26.19,14.02,-62,558,-929,29.2,11.8,-3.4,29.1,1.1,-31.8,5.73,2.30,-27.1,33.3
2012-05-24 00:18:00,0.0,1.9171,0.0013,403.54,0.19,143.5,28.1,137.98,33.61,24.64,36.42,0.93,-26.18,14.27,-62,558,-929,29.2,11.7,-3.4,29.1,1.0,-31.9,5.73,2.29,-27.1,33.3
2012-05-24 00:19:00,0.0,1.9165,0.0009,403.66,0.21,153.0,30.9,137.98,33.61,24.64,36.41,0.96,-26.18,14.50,-62,558,-929,29.2,11.7,-3.5,29.1,1.1,-31.8,5.73,2.28,-27.1,33.2
2012-05-24 00:20:00,0.0,1.9164,0.0009,403.58,0.19,145.1,32.5,137.98,33.62,24.64,36.41,0.94,-26.17,14.72,-62,558,-929,29.2,11.7,-3.5,29.1,1.1,-31.8,5.73,2.28,-27.1,33.3
2012-05-24 00:21:00,0.0,1.9160,0.0010,403.50,0.25,144.5,29.8,137.98,33.62,24.64,36.42,0.94,-26.15,14.94,-62,558,-929,29.2,11.7,-3.5,29.1,1.1,-31.8,5.73,2.28,-27.1,33.3
2012-05-24 00:22:00,0.0,1.9157,0.0010,403.51,0.19,151.1,31.4,137.98,33.63,24.64,36.42,0.97,-26.15,15.15,-62,558,-929,29.2,11.7,-3.4,29.1,1.1,-31.8,5.73,2.29,-27.1,33.3
2012-05-24 00:23:00,0.0,1.9155,0.0009,403.67,0.18,152.5,22.7,137.98,33.63,24.64,36.41,0.95,-26.14,15.34,-63,558,-929,29.2,11.7,-3.5,29.2,1.1,-31.8,5.73,2.30,-27.1,33.3
2012-05-24 00:24:00,0.0,1.9156,0.0009,403.68,0.21,150.7,32.9,137.98,33.63,24.64,36.41,0.94,-26.13,15.53,-62,558,-929,29.2,11.7,-3.5,29.1,1.1,-31.8,5.73,2.30,-27.1,33.3
2012-05-24 00:25:00,0.0,1.9154,0.0009,403.55,0.21,144.3,29.4,137.98,33.64,24.64,36.42,0.95,-26.12,15.71,-63,558,-929,29.2,11.7,-3.4,29.2,1.1,-31.8,5.73,2.29,-27.1,33.4
2012-05-24 00:26:00,0.0,1.9147,0.0011,403.62,0.19,142.6,33.3,137.98,33.64,24.64,36.42,0.96,-26.11,15.88,-62,558,-929,29.2,11.8,-3.3,29.2,1.1,-31.7,5.73,2.27,-27.1,33.3
2012-05-24 00:27:00,0.0,1.9139,0.0012,403.64,0.21,145.9,28.7,137.98,33.65,24.64,36.42,0.97,-26.12,16.04,-63,558,-929,29.2,11.8,-3.4,29.2,1.1,-31.8,5.73,2.27,-27.1,33.4
2012-05-24 00:28:00,0.0,1.9137,0.0008,403.59,0.18,143.4,30.1,137.98,33.65,24.64,36.42,0.97,-26.11,16.20,-63,558,-929,29.3,11.7,-3.4,29.2,1.1,-31.7,5.73,2.28,-27.1,33.3
2012-05-24 00:29:00,0.0,1.9139,0.0010,403.65,0.20,145.8,28.0,137.98,33.66,24.64,36.41,0.96,-26.10,16.35,-63,558,-929,29.3,11.7,-3.4,29.2,1.1,-31.8,5.73,2.29,-27.1,33.4
2012-05-24 00:30:00,0.0,1.9140,0.0009,403.71,0.19,154.8,27.6,137.98,33.66,24.63,36.41,0.96,-26.10,16.50,-63,558,-929,29.3,11.7,-3.4,29.2,1.1,-31.8,5.73,2.29,-27.1,33.3
2012-05-24 00:31:00,0.0,1.9133,0.0011,403.74,0.25,144.6,26.6,137.98,33.67,24.64,36.41,0.96,-26.09,16.64,-63,558,-929,29.3,11.7,-3.4,29.2,1.1,-31.8,5.73,2.29,-27.1,33.4
2012-05-24 00:32:00,0.0,1.9137,0.0009,403.67,0.18,154.3,32.4,137.98,33.67,24.64,36.41,0.95,-26.08,16.77,-63,558,-929,29.3,11.8,-3.4,29.2,1.0,-31.8,5.73,2.27,-27.1,33.4
2012-05-24 00:33:00,0.0,1.9133,0.0010,403.70,0.17,158.0,28.8,137.98,33.68,24.64,36.42,0.94,-26.07,16.89,-63,558,-929,29.3,11.7,-3.4,29.2,1.1,-31.7,5.73,2.27,-27.1,33.3
2012-05-24 00:34:00,0.0,1.9103,0.0015,403.60,0.20,154.2,28.1,137.98,33.68,24.64,36.41,0.93,-26.07,17.01,-63,558,-929,29.3,11.7,-3.4,29.2,1.1,-31.8,5.73,2.27,-27.1,33.3
2012-05-24 00:35:00,0.0,1.9141,0.0010,403.61,0.21,159.0,29.9,137.98,33.69,24.64,36.42,0.93,-26.07,17.13,-63,558,-929,29.3,11.8,-3.3,29.2,1.1,-31.8,5.73,2.29,-27.1,33.3
2012-05-24 00:36:00,0.0,1.9136,0.0011,403.62,0.20,155.3,24.9,137.97,33.69,24.64,36.42,0.92,-26.06,17.24,-63,558,-929,29.3,11.8,-3.3,29.2,1.0,-31.8,5.73,2.30,-27.1,33.4
2012-05-24 00:37:00,0.0,1.9157,0.0010,403.65,0.24,161.4,27.2,137.98,33.70,24.64,36.41,0.95,-26.06,17.34,-63,558,-929,29.3,11.9,-3.2,29.2,1.1,-31.8,5.73,2.29,-27.1,33.4
2012-05-24 00:38:00,0.0,1.9121,0.0020,403.55,0.21,163.7,29.6,137.98,33.70,24.64,36.41,0.93,-26.05,17.45,-63,558,-929,29.3,11.7,-3.4,29.2,1.1,-31.7,5.73,2.28,-27.1,33.4
2012-05-24 00:39:00,0.0,1.9097,0.0010,403.50,0.21,161.7,23.5,137.98,33.71,24.64,36.42,0.95,-26.05,17.55,-63,558,-929,29.3,11.7,-3.4,29.2,1.1,-31.7,5.73,2.27,-27.1,33.4
2012-05-24 00:40:00,0.0,1.9111,0.0013,403.58,0.18,157.2,27.9,137.97,33.71,24.64,36.41,0.95,-26.04,17.64,-63,558,-929,29.3,11.8,-3.3,29.3,1.1,-31.7,5.73,2.27,-27.1,33.4
2012-05-24 00:41:00,0.0,1.9129,0.0009,403.59,0.20,155.0,30.7,137.97,33.72,24.64,36.41,0.94,-26.04,17.73,-63,558,-929,29.3,11.8,-3.3,29.3,1.0,-31.8,5.73,2.29,-27.1,33.4
2012-05-24 00:42:00,0.0,1.9123,0.0010,403.67,0.21,165.5,26.8,137.98,33.72,24.64,36.41,0.96,-26.04,17.81,-63,559,-929,29.3,11.8,-3.3,29.3,1.1,-31.7,5.73,2.29,-27.0,33.4
2012-05-24 00:43:00,0.0,1.9124,0.0014,403.66,0.17,161.4,29.7,137.97,33.73,24.64,36.41,0.95,-26.03,17.90,-63,559,-929,29.3,11.7,-3.4,29.3,1.0,-31.8,5.73,2.29,-27.1,33.4
2012-05-24 00:44:00,0.0,1.9089,0.0017,403.57,0.16,159.6,26.4,137.97,33.73,24.64,36.41,0.96,-26.03,17.97,-63,559,-929,29.4,11.6,-3.5,29.3,1.0,-31.8,5.73,2.27,-27.0,33.4
2012-05-24 00:45:00,0.0,1.9074,0.0009,403.59,0.18,158.3,30.1,137.97,33.74,24.64,36.41,0.96,-26.02,18.05,-63,559,-929,29.4,11.6,-3.5,29.3,1.1,-31.7,5.73,2.27,-27.0,33.5
2012-05-24 00:46:00,0.0,1.9091,0.0010,403.60,0.19,163.3,32.3,137.97,33.74,24.64,36.41,0.96,-26.02,18.12,-63,559,-929,29.4,11.6,-3.4,29.3,1.0,-31.7,5.73,2.27,-27.0,33.5
2012-05-24 00:47:00,0.0,1.9077,0.0012,403.58,0.18,163.3,28.5,137.97,33.74,24.64,36.41,0.96,-26.01,18.19,-63,559,-929,29.4,11.6,-3.4,29.3,1.1,-31.7,5.73,2.29,-27.0,33.5
2012-05-24 00:48:00,0.0,1.9076,0.0011,403.51,0.16,161.9,31.0,137.97,33.75,24.64,36.42,0.97,-26.01,18.26,-63,559,-929,29.4,11.6,-3.5,29.3,1.0,-31.8,5.73,2.29,-27.0,33.5
2012-05-24 00:49:00,0.0,1.9084,0.0009,403.56,0.19,167.3,30.9,137.97,33.76,24.64,36.42,0.97,-26.01,18.32,-63,559,-929,29.4,11.6,-3.4,29.3,1.1,-31.7,5.73,2.28,-27.0,33.5
2012-05-24 00:50:00,0.0,1.9092,0.0010,403.64,0.21,165.8,29.5,137.97,33.76,24.64,36.41,0.97,-26.01,18.38,-63,559,-929,29.4,11.7,-3.4,29.4,1.1,-31.7,5.73,2.27,-27.0,33.5
2012-05-24 00:51:00,0.0,1.9082,0.0008,403.67,0.22,168.1,29.0,137.97,33.76,24.64,36.40,0.97,-26.00,18.44,-63,559,-929,29.4,11.6,-3.4,29.3,1.0,-31.7,5.73,2.27,-27.0,33.5
2012-05-24 00:52:00,0.0,1.9076,0.0009,403.57,0.20,170.5,26.6,137.97,33.77,24.64,36.41,0.96,-26.00,18.50,-63,559,-929,29.4,11.6,-3.4,29.4,1.1,-31.6,5.73,2.28,-27.0,33.5
2012-05-24 00:53:00,0.0,1.9081,0.0009,403.56,0.22,161.2,34.2,137.97,33.77,24.64,36.42,0.95,-26.00,18.55,-63,559,-929,29.4,11.6,-3.4,29.3,1.0,-31.7,5.73,2.29,-27.0,33.5
2012-05-24 00:54:00,0.0,1.9081,0.0008,403.57,0.18,163.7,28.7,137.97,33.78,24.64,36.42,0.95,-26.00,18.60,-63,559,-929,29.4,11.6,-3.4,29.3,1.0,-31.7,5.73,2.29,-27.0,33.5
2012-05-24 00:55:00,0.0,1.9083,0.0008,403.52,0.20,174.6,28.3,137.97,33.78,24.64,36.41,0.96,-25.99,18.65,-63,559,-930,29.5,11.7,-3.3,29.4,1.0,-31.7,5.73,2.28,-27.0,33.6
2012-05-24 00:56:00,0.0,1.9093,0.0009,403.61,0.17,165.4,25.9,137.97,33.79,24.64,36.41,0.92,-25.99,18.70,-63,559,-929,29.5,11.7,-3.2,29.4,1.1,-31.6,5.73,2.27,-27.0,33.5
2012-05-24 00:57:00,0.0,1.9146,0.0022,403.62,0.19,174.6,28.7,137.97,33.80,24.64,36.41,0.96,-26.00,18.74,-63,559,-929,29.5,11.9,-3.1,29.4,1.1,-31.7,5.73,2.27,-27.0,33.6
2012-05-24 00:58:00,0.0,1.9154,0.0010,403.55,0.18,165.9,27.0,137.97,33.80,24.64,36.41,0.93,-26.00,18.78,-63,559,-929,29.5,11.9,-3.1,29.4,1.0,-31.7,5.73,2.29,-27.0,33.5
2012-05-24 00:59:00,0.0,1.9160,0.0009,403.58,0.20,170.7,31.3,137.97,33.81,24.64,36.41,0.95,-25.99,18.83,-63,559,-929,29.5,11.9,-3.1,29.4,1.1,-31.6,5.73,2.29,-27.0,33.5
2012-05-24 01:00:00,0.0,1.9118,0.0021,403.64,0.20,171.2,34.4,137.97,33.81,24.64,36.41,0.95,-25.99,18.87,-63,559,-929,29.5,11.8,-3.2,29.4,1.1,-31.6,5.73,2.28,-27.0,33.6
2012-05-24 01:01:00,0.0,1.9103,0.0010,403.57,0.20,178.0,26.3,137.97,33.82,24.64,36.41,0.95,-25.99,18.90,-63,559,-929,29.5,11.7,-3.2,29.4,1.0,-31.9,5.73,2.27,-26.9,33.6
2012-05-24 01:02:00,0.0,1.9103,0.0012,403.59,0.19,174.8,30.2,137.97,33.82,24.64,36.41,0.93,-25.99,18.94,-63,559,-929,29.5,11.7,-3.2,29.4,1.0,-32.0,5.73,2.27,-26.9,33.6
2012-05-24 01:03:00,0.0,1.9093,0.0009,403.60,0.22,181.0,29.0,137.97,33.83,24.64,36.41,0.96,-25.99,18.98,-63,559,-929,29.5,11.7,-3.2,29.4,1.0,-31.9,5.73,2.28,-26.9,33.5
2012-05-24 01:04:00,0.0,1.9110,0.0011,403.66,0.17,164.3,27.5,137.97,33.83,24.64,36.41,0.94,-25.99,19.01,-63,559,-929,29.5,11.8,-3.2,29.5,1.0,-31.9,5.73,2.29,-26.9,33.5
2012-05-24 01:05:00,0.0,1.9139,0.0011,403.60,0.18,182.5,25.2,137.97,33.84,24.64,36.41,0.96,-25.99,19.04,-63,559,-929,29.5,11.8,-3.1,29.5,1.0,-31.9,5.73,2.28,-26.9,33.6
2012-05-24 01:06:00,0.0,1.9131,0.0008,403.64,0.19,182.1,30.9,137.97,33.85,24.64,36.40,0.95,-25.98,19.07,-63,559,-929,29.5,11.8,-3.2,29.5,1.0,-31.9,5.73,2.27,-26.9,33.6
2012-05-24 01:07:00,0.0,1.9149,0.0009,403.57,0.18,178.1,32.8,137.97,33.85,24.64,36.41,0.96,-25.99,19.10,-63,559,-929,29.5,11.7,-3.2,29.5,1.0,-31.9,5.73,2.26,-26.9,33.7
2012-05-24 01:08:00,0.0,1.9154,0.0009,403.59,0.18,176.9,26.2,137.97,33.86,24.64,36.41,0.96,-25.99,19.13,-63,559,-930,29.5,11.7,-3.2,29.5,1.0,-32.0,5.73,2.28,-26.9,33.6
2012-05-24 01:09:00,0.0,1.9154,0.0008,403.53,0.20,184.2,29.4,137.97,33.86,24.64,36.41,0.97,-25.99,19.16,-63,559,-929,29.5,11.7,-3.3,29.5,1.0,-31.8,5.73,2.29,-26.9,33.6
2012-05-24 01:10:00,0.0,1.9151,0.0009,403.54,0.15,180.5,29.1,137.97,33.87,24.64,36.41,0.96,-25.99,19.18,-63,559,-929,29.5,11.6,-3.4,29.5,1.0,-31.9,5.73,2.28,-26.9,33.7
2012-05-24 01:11:00,0.0,1.9144,0.0010,403.62,0.17,177.2,28.2,137.97,33.88,24.64,36.40,0.98,-25.99,19.21,-63,559,-930,29.6,11.4,-3.5,29.5,1.0,-31.8,5.73,2.27,-26.9,33.7
2012-05-24 01:12:00,0.0,1.9135,0.0011,403.66,0.18,184.6,26.7,137.97,33.88,24.64,36.40,0.97,-25.98,19.24,-63,559,-930,29.6,11.5,-3.4,29.5,1.0,-31.9,5.73,2.26,-26.9,33.7
2012-05-24 01:13:00,0.0,1.9142,0.0009,403.63,0.22,179.1,25.4,137.97,33.89,24.64,36.40,0.97,-25.98,19.26,-63,559,-929,29.6,11.6,-3.3,29.5,1.0,-31.9,5.73,2.28,-26.9,33.7
2012-05-24 01:14:00,0.0,1.9138,0.0008,403.57,0.18,191.5,28.0,137.97,33.89,24.64,36.41,0.97,-25.98,19.28,-63,559,-929,29.6,11.6,-3.2,29.5,1.0,-31.9,5.73,2.29,-26.9,33.7
2012-05-24 01:15:00,0.0,1.9132,0.0009,403.58,0.18,177.0,27.8,137.97,33.89,24.64,36.41,0.96,-25.98,19.30,-63,559,-930,29.6,11.6,-3.2,29.5,1.0,-31.9,5.73,2.29,-26.9,33.6
2012-05-24 01:16:00,0.0,1.9131,0.0010,403.63,0.17,186.4,24.5,137.97,33.90,24.64,36.41,0.96,-25.98,19.32,-63,559,-930,29.6,11.6,-3.2,29.5,1.0,-31.8,5.73,2.27,-26.9,33.7
2012-05-24 01:17:00,0.0,1.9119,0.0010,403.66,0.18,184.5,26.5,137.97,33.91,24.64,36.40,0.96,-25.98,19.34,-63,560,-929,29.6,11.6,-3.3,29.5,1.0,-31.9,5.73,2.26,-26.9,33.7
2012-05-24 01:18:00,0.0,1.9126,0.0010,403.63,0.16,193.7,32.7,137.97,33.92,24.64,36.40,0.95,-25.98,19.36,-63,560,-930,29.6,11.6,-3.3,29.6,1.0,-31.8,5.73,2.27,-26.9,33.8
2012-05-24 01:19:00,0.0,1.9131,0.0008,403.56,0.24,187.8,30.4,137.97,33.92,24.64,36.41,0.95,-25.98,19.38,-63,560,-930,29.6,11.6,-3.2,29.5,1.0,-31.9,5.73,2.29,-26.9,33.7
2012-05-24 01:20:00,0.0,1.9127,0.0009,403.60,0.19,193.7,29.8,137.97,33.93,24.64,36.41,0.96,-25.97,19.40,-63,560,-929,29.6,11.6,-3.2,29.6,1.0,-31.8,5.73,2.29,-26.8,33.7
2012-05-24 01:21:00,0.0,1.9125,0.0009,403.61,0.18,188.6,28.1,137.97,33.94,24.64,36.41,0.94,-25.98,19.42,-63,560,-929,29.6,11.6,-3.2,29.5,1.0,-31.9,5.73,2.27,-26.8,33.7
2012-05-24 01:22:00,0.0,1.9125,0.0007,403.61,0.19,192.2,28.9,137.97,33.95,24.64,36.40,0.93,-25.98,19.43,-63,560,-929,29.7,11.6,-3.2,29.6,1.0,-31.8,5.73,2.26,-26.8,33.7
2012-05-24 01:23:00,0.0,1.9120,0.0010,403.73,0.19,193.9,26.9,137.97,33.95,24.64,36.40,0.97,-25.97,19.44,-63,560,-929,29.7,11.6,-3.2,29.6,1.0,-31.8,5.73,2.27,-26.8,33.8
2012-05-24 01:24:00,0.0,1.9123,0.0010,403.74,0.18,184.1,27.9,137.97,33.96,24.64,36.40,0.95,-25.98,19.46,-63,560,-930,29.7,11.6,-3.3,29.6,1.0,-31.9,5.73,2.29,-26.8,33.7
2012-05-24 01:25:00,0.0,1.9125,0.0009,403.62,0.17,188.2,31.4,137.97,33.96,24.64,36.41,0.97,-25.97,19.43,-63,560,-930,29.7,11.6,-3.3,29.6,1.0,-31.8,5.73,2.28,-26.8,33.7
2012-05-24 01:26:00,0.0,1.9121,0.0008,403.67,0.17,187.6,26.9,137.97,33.97,24.64,36.40,1.16,-25.97,18.22,-63,560,-930,29.7,11.6,-3.2,29.6,1.0,-31.9,5.73,2.26,-26.8,33.7
2012-05-24 01:27:00,0.0,1.9122,0.0008,403.66,0.19,195.1,29.3,137.97,33.98,24.64,36.40,1.02,-25.96,15.97,-63,560,-930,29.7,11.6,-3.3,29.6,1.0,-31.9,5.73,2.26,-26.8,33.7
2012-05-24 01:28:00,0.0,1.9125,0.0009,403.69,0.18,197.9,24.9,137.97,33.99,24.64,36.41,0.94,-25.98,13.55,-63,560,-930,29.7,11.6,-3.2,29.6,1.0,-31.8,5.73,2.27,-26.8,33.8
2012-05-24 01:29:00,0.0,1.9125,0.0009,403.70,0.18,195.4,27.9,137.97,33.99,24.63,36.40,1.09,-26.00,11.14,-63,560,-930,29.7,11.6,-3.2,29.6,1.0,-31.8,5.73,2.28,-26.7,33.8
2012-05-24 01:30:00,0.0,1.9122,0.0010,403.68,0.21,187.2,27.9,137.97,34.00,24.64,36.41,1.11,-26.02,8.81,-63,560,-929,29.7,11.6,-3.1,29.7,1.0,-31.8,5.73,2.28,-26.7,33.8
2012-05-24 01:31:00,0.0,1.9116,0.0009,403.64,0.18,196.1,25.6,137.97,34.00,24.64,36.40,1.09,-26.02,6.60,-63,560,-930,29.7,11.7,-3.1,29.7,1.0,-31.8,5.73,2.26,-26.7,33.7
2012-05-24 01:32:00,0.0,1.9114,0.0010,403.53,0.19,195.1,26.6,137.97,34.01,24.64,36.41,1.01,-26.01,4.48,-63,560,-930,29.7,11.7,-3.1,29.7,1.0,-31.9,5.73,2.26,-26.7,33.8
2012-05-24 01:33:00,0.0,1.9122,0.0009,403.61,0.18,202.8,26.6,137.97,34.02,24.64,36.41,1.09,-26.01,2.48,-63,560,-929,29.7,11.7,-3.1,29.7,1.0,-31.8,5.73,2.27,-26.7,33.8
2012-05-24 01:34:00,0.0,1.9118,0.0012,403.59,0.19,197.3,22.9,137.97,34.02,24.64,36.41,1.11,-26.00,0.60,-63,560,-929,29.8,11.7,-3.0,29.7,1.0,-31.7,5.73,2.28,-26.7,33.8
2012-05-24 01:35:00,0.0,1.9075,0.0010,403.59,0.19,199.4,30.2,137.96,34.03,24.64,36.40,1.02,-26.01,-1.10,-63,560,-929,29.8,11.6,-3.1,29.7,1.0,-31.7,5.73,2.27,-26.7,33.8
2012-05-24 01:36:00,0.0,1.9067,0.0011,403.52,0.19,201.0,26.9,137.97,34.04,24.64,36.40,1.06,-26.00,-2.81,-63,560,-929,29.8,11.6,-3.1,29.7,1.0,-31.7,5.73,2.26,-26.7,33.8
2012-05-24 01:37:00,0.0,1.9050,0.0009,403.45,0.18,198.9,30.2,137.97,34.05,24.64,36.40,1.12,-26.00,-4.41,-63,560,-929,29.8,11.6,-3.1,29.7,1.0,-31.7,5.73,2.26,-26.7,33.8
2012-05-24 01:38:00,0.0,1.9055,0.0012,403.55,0.18,208.5,30.1,137.96,34.06,24.64,36.40,1.05,-26.00,-5.92,-63,560,-930,29.8,11.6,-3.1,29.7,1.0,-31.8,5.73,2.27,-26.7,33.9
2012-05-24 01:39:00,0.0,1.9045,0.0011,403.41,0.18,206.8,26.4,137.96,34.07,24.64,36.40,1.01,-25.99,-7.29,-63,560,-930,29.8,11.6,-3.1,29.7,1.0,-31.7,5.73,2.27,-26.7,33.9
2012-05-24 01:40:00,0.0,1.9054,0.0016,403.43,0.19,202.0,32.4,137.96,34.07,24.64,36.41,1.09,-26.00,-8.61,-63,560,-930,29.8,11.7,-3.0,29.8,1.0,-31.9,5.73,2.27,-26.7,33.8
2012-05-24 01:41:00,0.0,1.9070,0.0010,403.50,0.21,197.6,26.0,137.97,34.08,24.64,36.41,1.10,-26.00,-9.81,-63,560,-930,29.8,11.7,-2.9,29.8,1.0,-31.8,5.73,2.25,-26.7,33.8
2012-05-24 01:42:00,0.0,1.9066,0.0009,403.60,0.21,200.7,30.8,137.96,34.09,24.64,36.40,1.02,-26.01,-10.93,-63,560,-930,29.9,11.8,-2.9,29.8,1.0,-32.0,5.73,2.25,-26.7,33.7
2012-05-24 01:43:00,0.0,1.9062,0.0009,403.47,0.18,202.9,26.5,137.96,34.10,24.64,36.41,1.03,-26.01,-11.96,-63,561,-930,29.9,11.8,-2.8,29.8,1.0,-32.1,5.73,2.27,-26.7,33.7
2012-05-24 01:44:00,0.0,1.9064,0.0010,403.51,0.18,202.7,24.3,137.96,34.10,24.64,36.41,1.09,-26.01,-12.97,-63,560,-930,29.9,11.9,-2.7,29.8,1.0,-32.0,5.73,2.28,-26.7,33.8
2012-05-24 01:45:00,0.0,1.9054,0.0007,403.38,0.20,205.4,25.4,137.96,34.11,24.64,36.41,1.09,-26.01,-13.95,-63,561,-930,29.9,11.7,-2.9,29.8,1.0,-32.0,5.73,2.27,-26.7,33.8
2012-05-24 01:46:00,0.0,1.9054,0.0008,403.56,0.18,200.8,26.0,137.96,34.12,24.64,36.40,1.02,-26.01,-14.90,-63,561,-930,29.9,11.7,-3.0,29.8,1.0,-31.9,5.73,2.25,-26.7,33.9
2012-05-24 01:47:00,0.0,1.9052,0.0010,403.47,0.19,215.7,29.1,137.96,34.13,24.64,36.40,1.02,-26.01,-15.78,-63,561,-930,29.9,11.7,-2.9,29.8,1.0,-32.1,5.73,2.26,-26.7,33.9
2012-05-24 01:48:00,0.0,1.9052,0.0008,403.45,0.19,202.6,29.6,137.96,34.14,24.64,36.40,1.07,-26.03,-16.56,-63,561,-930,29.9,11.7,-3.0,29.8,1.0,-32.2,5.73,2.28,-26.6,33.9
2012-05-24 01:49:00,0.0,1.9052,0.0010,403.39,0.21,205.5,25.1,137.96,34.15,24.64,36.40,1.10,-26.03,-17.26,-63,561,-930,29.9,11.7,-2.9,29.9,1.0,-32.0,5.73,2.28,-26.6,33.9
2012-05-24 01:50:00,0.0,1.9057,0.0008,403.45,0.18,207.2,25.1,137.96,34.15,24.64,36.40,1.03,-26.03,-18.01,-63,561,-930,29.9,11.7,-2.9,29.9,1.0,-32.1,5.73,2.26,-26.6,33.9
2012-05-24 01:51:00,0.0,1.9049,0.0008,403.38,0.22,211.3,31.2,137.96,34.16,24.64,36.40,1.00,-26.05,-18.71,-63,561,-930,29.9,11.7,-2.9,29.9,1.0,-31.8,5.73,2.25,-26.6,33.9
2012-05-24 01:52:00,0.0,1.9049,0.0011,403.36,0.19,211.0,24.4,137.96,34.17,24.64,36.41,1.06,-26.07,-19.39,-63,561,-930,29.9,11.6,-3.0,29.9,1.0,-32.1,5.73,2.26,-26.7,33.9
2012-05-24 01:53:00,0.0,1.9053,0.0010,403.47,0.20,200.1,27.7,137.96,34.17,24.64,36.40,1.09,-26.07,-20.01,-63,561,-930,29.9,11.7,-2.9,29.9,1.0,-32.0,5.73,2.28,-26.7,33.9
2012-05-24 01:54:00,0.0,1.9058,0.0009,403.36,0.21,207.8,33.1,137.96,34.18,24.63,36.41,1.05,-26.07,-20.60,-63,561,-930,29.9,11.7,-2.9,29.9,1.0,-32.0,5.73,2.26,-26.6,34.0
2012-05-24 01:55:00,0.0,1.9052,0.0009,403.36,0.18,210.8,27.3,137.96,34.19,24.64,36.40,1.00,-26.08,-21.15,-63,561,-930,30.0,11.7,-2.9,29.9,1.0,-32.0,5.73,2.24,-26.6,34.0
2012-05-24 01:56:00,0.0,1.9053,0.0013,403.36,0.19,212.2,26.8,137.96,34.20,24.64,36.40,1.04,-26.09,-21.68,-63,561,-930,30.0,11.8,-2.8,29.9,1.0,-32.0,5.73,2.25,-26.6,34.0
2012-05-24 01:57:00,0.0,1.9075,0.0009,403.44,0.19,211.8,26.8,137.96,34.20,24.64,36.40,1.09,-26.10,-22.16,-63,561,-930,30.0,11.9,-2.6,29.9,1.0,-32.1,5.73,2.28,-26.6,34.0
2012-05-24 01:58:00,0.0,1.9068,0.0009,403.39,0.21,210.0,29.4,137.96,34.21,24.64,36.41,1.08,-26.11,-22.62,-63,561,-930,30.0,11.9,-2.6,29.9,1.0,-31.7,5.73,2.28,-26.6,34.0
2012-05-24 01:59:00,0.0,1.9079,0.0013,403.65,0.16,212.0,26.7,137.96,34.22,24.64,36.39,1.01,-26.11,-23.05,-63,561,-930,30.0,11.9,-2.7,29.9,1.0,-31.9,5.73,2.26,-26.6,34.1
2012-05-24 02:00:00,0.0,1.9099,0.0009,403.69,0.16,210.7,28.0,137.96,34.23,24.64,36.40,1.00,-26.12,-23.45,-63,561,-930,30.0,11.8,-2.7,29.9,1.0,-32.0,5.73,2.25,-26.6,34.1
2012-05-24 02:01:00,0.0,1.9101,0.0009,403.76,0.20,216.7,26.9,137.96,34.24,24.64,36.39,1.05,-26.13,-23.84,-63,561,-930,30.0,11.8,-2.7,29.9,1.0,-32.0,5.73,2.26,-26.6,34.1
2012-05-24 02:02:00,0.0,1.9085,0.0012,403.53,0.18,214.7,28.9,137.96,34.25,24.63,36.40,1.09,-26.14,-24.19,-63,561,-930,30.0,11.8,-2.7,30.0,1.0,-31.9,5.73,2.28,-26.6,34.1
2012-05-24 02:03:00,0.0,1.9072,0.0010,403.54,0.19,211.2,25.9,137.96,34.25,24.64,36.40,1.06,-26.15,-24.53,-63,561,-930,30.1,11.8,-2.7,30.0,1.0,-32.1,5.73,2.27,-26.6,34.1
2012-05-24 02:04:00,0.0,1.9073,0.0011,403.51,0.18,208.0,23.5,137.96,34.26,24.64,36.40,1.00,-26.15,-24.85,-63,561,-930,30.1,11.8,-2.7,30.0,1.0,-32.2,5.73,2.25,-26.6,34.1
2012-05-24 02:05:00,0.0,1.9076,0.0009,403.51,0.17,214.0,32.4,137.96,34.27,24.64,36.40,1.00,-26.16,-25.16,-63,561,-930,30.1,11.8,-2.7,30.0,1.0,-32.1,5.73,2.25,-26.6,34.1
2012-05-24 02:06:00,0.0,1.9085,0.0012,403.47,0.21,218.5,27.5,137.96,34.28,24.63,36.40,1.05,-26.17,-25.44,-63,561,-930,30.1,11.8,-2.7,30.0,1.0,-32.2,5.73,2.27,-26.6,34.2
2012-05-24 02:07:00,0.0,1.9090,0.0009,403.56,0.27,212.2,29.2,137.96,34.29,24.64,36.40,1.08,-26.18,-25.70,-63,561,-930,30.1,11.8,-2.7,30.0,1.0,-32.2,5.73,2.27,-26.6,34.2
2012-05-24 02:08:00,0.0,1.9090,0.0010,403.60,0.19,211.8,29.2,137.96,34.30,24.64,36.40,1.07,-26.19,-25.95,-63,561,-930,30.1,11.7,-2.7,30.0,1.0,-32.0,5.73,2.25,-26.6,34.2
2012-05-24 02:09:00,0.0,1.9079,0.0009,403.55,0.18,218.0,27.0,137.96,34.30,24.64,36.40,1.01,-26.20,-26.18,-63,561,-930,30.1,11.7,-2.7,30.0,1.0,-32.2,5.73,2.24,-26.5,34.3
2012-05-24 02:10:00,0.0,1.9086,0.0008,403.55,0.18,218.5,27.0,137.96,34.31,24.64,36.40,1.01,-26.20,-26.00,-63,562,-930,30.1,11.7,-2.8,30.1,0.9,-32.4,5.73,2.27,-26.5,34.2
2012-05-24 02:11:00,0.0,1.9088,0.0008,403.52,0.21,219.1,25.8,137.96,34.32,24.64,36.40,1.00,-26.21,-25.99,-63,561,-930,30.1,11.7,-2.8,30.1,0.9,-32.4,5.73,2.27,-26.5,34.3
2012-05-24 02:12:00,0.0,1.9091,0.0010,403.56,0.19,213.9,29.2,137.96,34.32,24.63,36.40,1.01,-26.21,-26.17,-63,561,-930,30.1,11.7,-2.8,30.1,1.0,-32.3,5.73,2.25,-26.5,34.3
2012-05-24 02:13:00,0.0,1.9095,0.0009,403.52,0.22,215.7,24.3,137.96,34.33,24.64,36.40,1.00,-26.22,-26.08,-63,561,-930,30.2,11.6,-2.8,30.1,1.0,-32.2,5.73,2.24,-26.5,34.2
2012-05-24 02:14:00,0.0,1.9098,0.0008,403.55,0.21,218.2,28.9,137.96,34.34,24.63,36.40,1.10,-26.23,-25.98,-63,562,-930,30.2,11.6,-2.8,30.1,1.0,-31.9,5.73,2.26,-26.6,34.3
2012-05-24 02:15:00,0.0,1.9097,0.0010,403.52,0.17,215.9,26.9,137.96,34.34,24.64,36.40,1.06,-26.23,-26.16,-63,562,-930,30.2,11.6,-2.8,30.1,1.0,-31.9,5.73,2.28,-26.5,34.3
2012-05-24 02:16:00,0.0,1.9096,0.0011,403.53,0.18,219.6,25.0,137.96,34.36,24.64,36.39,1.01,-26.24,-26.16,-63,562,-930,30.2,11.7,-2.7,30.1,1.0,-32.2,5.73,2.26,-26.6,34.3
2012-05-24 02:17:00,0.0,1.9100,0.0010,403.51,0.18,224.5,26.7,137.96,34.36,24.64,36.40,1.00,-26.25,-25.99,-64,561,-930,30.2,11.6,-2.8,30.2,0.9,-32.3,5.73,2.24,-26.5,34.3
2012-05-24 02:18:00,0.0,1.9083,0.0012,403.55,0.21,225.4,25.6,137.96,34.37,24.64,36.39,1.02,-26.26,-26.14,-63,562,-930,30.2,11.6,-2.8,30.1,0.9,-32.4,5.73,2.25,-26.6,34.2
2012-05-24 02:19:00,0.0,1.9086,0.0011,403.46,0.19,222.9,27.3,137.96,34.38,24.63,36.40,0.98,-26.26,-26.23,-63,562,-930,30.2,11.6,-2.8,30.1,0.9,-32.4,5.73,2.28,-26.6,34.3